カタログに戻る

STARLINK-30380

運用中通信VLEO
NORAD 57780·PAYLOAD·🇺🇸 United States

打ち上げ Sep 4, 2023 から Cape Canaveral Space Force Station

Loading…

次のパス (今後24時間)

TLE

最新Source: CelesTrak SupGP

元期: Sep 15, 2026, 03:05 UTC

1 57780C 23134K   26258.12895833  .00010249  00000+0  37122-3 0  2583
2 57780  42.9999 204.5567 0001104 267.3494 317.6551 15.27572027    18

AllMySatでSTARLINK-30380をリアルタイム追跡

Download on the App Store